Stow, OH

12:07 PM EDT on May 03, 2015 (GMT -0400)
OHDOT | | Change Station
CLOSE
Current Station
Personal Weather Station
Location: Cuyahoga Falls, OH
Elevation: 983 ft
Nearby Weather Stations

Elev 983 ft 41.18 °N, 81.49 °W | Updated 27 minutes ago

Clear
Clear
76 °F
Feels Like 77 °F
N
5
Wind Variable Wind from West
Gusts 9.0 mph

Today
High -- | Low -- °F
--% Chance of Precip.
Yesterday
High -- | Low -- °F
Precip. -- in
6:21 AM 8:24 PM
Full, 100% visible
Pressure 30.10 in
Visibility 10.0 miles
Clouds Clear
Heat Index 77 °F
Dew Point 40 °F
Humidity 26%
Rainfall in
Snow Depth Not available.
UV 9 out of 12
Pollen 11.10 out of 12
Air Quality Not available.
Flu Activity Regional
METAR KAKR 031554Z AUTO 27009KT 10SM CLR 23/06 A3011 RMK AO2 SLP193 T02330061

More Conditions Fewer Conditions

Pressure 30.10 in
Visibility 10.0 miles
Clouds Clear
Heat Index 77 °F
Dew Point 40 °F
Humidity 26%
Rainfall in
Snow Depth Not available.
UV 9 out of 12
Pollen 11.10 out of 12
Air Quality Not available.
Flu Activity Regional
METAR KAKR 031554Z AUTO 27009KT 10SM CLR 23/06 A3011 RMK AO2 SLP193 T02330061

More Conditions Fewer Conditions

Nepal has a long way to go to dig out and rebuild from a devastating earthquake. We have teamed up with several charities and organizations to make contributing to the relief effort as easy as possible.
How you can help: Portlight Strategies | Red Cross

10-Day Weather Forecast

Almanac

Astronomy

May. 03, 2015 Rise Set
Actual Time
Civil Twilight
Nautical Twilight
Astronomical Twilight
Moon
Length of Visible Light
Length of Day
Tomorrow will be .
, % of the Moon is Illuminated

Today's Extremes

State Highs State Lows

Community

WunderPhotos

Upload Photos

1,818,260 photos uploaded!

WunderBlogs® & News

Nearby

Air Quality

  Air Quality AQ Index Pollutant
Not available.

Snow Depth

Station Depth Elevation

Earthquake Activity

City Distance Mag. Time & Date
Minimum magnitude displayed is 2.5.

Coastal Water Temperatures

Place Temperature

Stations

Nearby Weather Stations

Station Location Temp. Windchill Dew Point Humidity Wind Precip. Elev Updated Type